EHI
0 0 0 0 0 0 0 0 0 0 0 0 0 0 0 0 0 0 0 0 0 0 0 0 0 0 0 0 0 0 0 0 0 0 0 0 0 0 0 0 0 0 0 0
0 0 0 0 0 0 0 0 0 0 0 0 0 0 0 0 0 0 0 0 0 0 0 0 0 0 0 0 0 0 0 0 0 0 0 0 0 0 0 0 0 0 0 0
0 0 0 0 0 0 0 0 0 0 0 0 0 0 0 0 0 0 0 0 0 0 0 0 0 0 0 0 0 0 0 0 0 0 0 0 0 0 0 0 0 0 0 0
0 0 0 0 0 0 0 0 0 0 0 0 0 0 0 0 0 0 0 0 0 0 0 0 0 0 0 0 0 0 0 0 0 0 0 0 0 0 0 0 0 0 0 0
0 0 0 0 0 0 0 0 0 0 0 0 0 0 0 0 0 0 0 0 0 0 0 0 0 0 0 0 0 0 0 0 0 0 0 0 0 0 0 0 0 0 0 0
0 0 0 0 0 0 0 0 0 0 0 0 0 0 0 0 0 0 0 0 0 0 0 0 0 0 0 0 0 0 0 0 0 0 0 0 0 0 0 0 0 0 0 0
0 0 0 0 0 0 0 0 0 0 0 0 0 0 0 0 0 0 0 0 0 0 0 0 0 0 0 0 0 0 0 0 0 0 0 0 0 0 0 0 0 0 0 0
0 0 0 0 0 0 0 0 0 0 0 0 0 0 0 0 0 0 0 0 0 0 0 0 0 0 0 0 0 0 0 0 0 0 0 0 0 0 0 0 0 0 0 0
0 0 0 0 0 0 0 0 0 0 0 0 0 0 0 0 0 0 0 0 0 0 0 0 0 0 0 0 0 0 0 0 0 0 0 0 0 0 0 0 0 0 0 0
0 0 0 0 0 0 0 0 0 0 0 0 0 0 0 0 0 0 0 0 0 0 0 0 0 0 0 0 0 0 0 0 0 0 0 0 0 0 0 0 0 0 0 0
0 0 0 0 0 0 0 0 0 0 0 0 0 0 0 0 0 0 0 0 0 0 0 0 0 0 0 0 0 0 0 0 0 0 0 0 0 0 0 0 0 0 0 0
0 0 0 0 0 0 0 0 0 0 0 0 0 0 0 0 0 0 0 0 0 0 0 0 0 0 0 0 0 0 0 0 0 0 0 0 0 0 0 0 0 0 0 0
0 0 0 0 0 0 0 0 0 0 0 0 0 0 0 0 0 0 0 0 0 0 0 0 0 0 0 0 0 0 0 0 0 0 0 0 0 0 0 0 0 0 0 0
0 0 0 0 0 0 0 0 0 0 0 0 0 0 0 0 0 0 0 0 0 0 0 0 0 0 0 0 0 0 0 0 0 0 0 0 0 0 0 0 0 0 0 0
0 0 0 0 0 0 0 0 0 0 0 0 0 0 0 0 0 0 0 0 0 0 0 0 0 0 0 0 0 0 0 0 0 0 0 0 0 0 0 0 0 0 0 0
0 0 0 0 0 0 0 0 0 0 0 0 0 0 0 0 0 0 0 0 0 0 0 0 0 0 0 0 0 0 0 0 0 0 0 0 0 0 0 0 0 0 0 0
0 0 0 0 0 0 0 0 0 0 0 0 0 0 0 0 0 0 0 0 0 0 0 0 0 0 0 0 0 0 0 0 0 0 0 0 0 0 0 0 0 0 0 0
0 0 0 0 0 0 0 0 0 0 0 0 0 0 0 0 0 0 0 0 0 0 0 0 0 0 0 0 0 0 0 0 0 0 0 0 0 0 0 0 0 0 0 0
0 0 0 0 0 0 0 0 0 0 0 0 0 0 0 0 0 0 0 0 0 0 0 0 0 0 0 0 0 0 0 0 0 0 0 0 0 0 0 0 0 0 0 0
0 0 0 0 0 0 0 0 0 0 0 0 0 0 0 0 0 0 0 0 0 0 0 0 0 0 0 0 0 0 0 0 0 0 0 0 0 0 0 0 0 0 0 0
0 0 0 0 0 0 0 0 0 0 0 0 0 0 0 0 0 0 0 0 0 0 0 0 0 0 0 0 0 0 0 0 0 0 0 0 0 0 0 0 0 0 0 0
0 0 0 0 0 0 0 0 0 0 0 0 0 0 0 0 0 0 0 0 0 0 0 0 0 0 0 0 0 0 0 0 0 0 0 0 0 0 0 0 0 0 0 0
0 0 0 0 0 0 0 0 0 0 0 0 0 0 0 0 0 0 0 0 0 0 0 0 0 0 0 0 0 0 0 0 0 0 0 0 0 0 0 0 0 0 0 0
0 0 0 0 0 0 0 0 0 0 0 0 0 0 0 0 0 0 0 0 0 0 0 0 0 0 0 0 0 0 0 0 0 0 0 0 0 0 0 0 0 0 0 0
0 0 0 0 0 0 0 0 0 0 0 0 0 0 0 0 0 0 0 0 0 0 0 0 0 0 0 0 0 0 0 0 0 0 0 0 0 0 0 0 0 0 0 0
0 0 0 0 0 0 0 0 0 0 0 0 0 0 0 0 0 0 0 0 0 0 0 0 0 0 0 0 0 0 0 0 0 0 0 0 0 0 0 0 0 0 0 0
0 0 0 0 0 0 0 0 0 0 0 0 0 0 0 0 0 0 0 0 0 0 0 0 0 0 0 0 0 0 0 0 0 0 0 0 0 0 0 0 0 0 0 0
Wind_Speed
8 6 7 9 13 15 15 13 13 14 12 10 7 7 5 5 5 5 5 6 7 7 6 6 6 6 6 7 7 7 8 8 7 7 7 6 6 6 6 6 6 6 6 5
8 7 6 8 13 18 20 17 14 10 13 9 6 3 3 5 7 7 7 8 8 8 7 8 8 8 7 7 7 8 8 7 7 7 7 7 6 6 6 6 5 5 5 5
6 4 3 11 17 21 18 15 16 19 15 5 7 10 10 9 9 10 10 10 10 10 10 9 9 9 9 8 8 8 8 7 7 7 7 7 7 7 6 6 5 5 5 5
3 3 11 11 7 11 15 15 13 11 8 11 12 12 10 10 11 11 10 9 9 9 8 7 7 7 8 8 9 8 8 7 7 8 7 7 7 6 6 5 5 5 4 4
4 5 9 8 6 11 13 15 13 13 8 7 5 3 6 7 9 11 12 10 9 9 7 8 9 10 10 9 9 8 8 8 8 8 8 8 7 6 5 5 4 4 4 4
5 5 9 8 4 4 7 11 8 11 12 9 6 7 11 7 8 9 8 7 6 6 7 9 9 11 11 10 10 9 9 8 8 8 8 8 7 6 4 5 5 5 4 3
7 7 10 6 2 7 9 9 4 11 12 11 13 15 9 6 7 8 8 7 7 8 8 9 11 12 11 10 9 8 8 8 8 7 7 7 6 5 6 6 6 5 5 3
8 9 11 2 4 7 5 3 3 5 8 10 12 10 6 6 7 7 6 6 8 8 7 8 10 12 11 9 8 9 10 9 8 7 7 7 8 6 6 7 6 5 4 3
9 9 4 3 6 6 3 3 3 4 5 7 8 8 7 7 7 6 7 7 7 9 9 7 8 11 12 10 11 11 11 10 9 8 7 7 8 8 6 5 5 4 3 3
6 8 7 7 7 5 4 5 5 4 4 5 7 7 7 6 6 6 6 7 8 11 11 9 7 7 10 12 12 12 12 10 9 9 8 6 5 5 5 5 4 4 3 3
8 9 8 9 7 6 6 5 5 5 5 5 5 5 6 6 6 6 6 6 8 11 12 11 10 10 11 12 13 13 11 10 8 8 8 7 5 4 4 3 5 5 4 3
10 7 6 10 8 7 7 8 7 5 6 4 4 5 5 5 6 7 8 8 9 10 11 11 11 11 10 10 13 14 11 9 7 7 6 6 7 6 7 6 8 7 6 4
13 11 11 12 11 9 9 9 7 6 6 5 4 4 5 4 5 7 8 10 11 12 12 12 12 11 10 10 11 12 12 10 7 7 7 6 6 6 5 6 9 8 7 6
11 9 11 12 11 10 8 8 5 4 4 3 3 3 4 5 6 8 9 9 10 12 12 12 12 11 9 10 11 11 11 10 9 7 6 6 5 5 5 5 3 3 4 5
13 12 12 10 9 7 6 4 3 4 3 2 3 5 7 8 9 8 9 10 12 12 12 12 12 10 9 11 12 12 10 8 7 7 6 6 5 5 5 5 4 3 2 2
10 9 9 9 10 8 6 6 6 6 5 4 4 5 5 6 8 9 10 12 14 14 13 12 12 11 10 12 12 10 8 13 11 7 6 6 5 5 4 4 3 2 1 0
10 12 10 9 10 9 9 8 8 7 6 7 7 7 8 9 10 10 8 7 9 10 10 12 12 11 11 12 12 9 8 10 13 8 6 6 5 5 4 4 3 2 1 1
15 15 12 11 10 10 9 7 6 6 7 7 8 9 10 12 12 11 11 11 11 10 8 9 12 12 11 11 10 9 8 8 7 7 6 5 5 4 4 3 3 2 1 1
15 15 13 12 11 10 9 8 6 6 6 8 9 9 8 9 11 12 12 13 14 12 8 10 18 13 12 12 12 9 9 9 7 6 6 8 6 4 4 3 2 2 1 0
14 13 12 11 10 9 9 7 6 6 7 9 9 9 9 10 11 12 12 9 6 7 12 14 14 12 11 12 13 8 9 9 8 7 6 5 5 4 3 3 2 2 1 1
13 12 11 10 9 8 8 8 9 9 9 10 10 11 12 11 11 12 12 9 6 10 13 17 11 10 10 11 13 9 8 8 8 7 6 5 5 4 3 2 2 1 1 1
9 9 10 9 8 7 7 7 8 10 10 9 10 12 13 13 11 9 7 8 11 16 11 9 9 13 15 15 9 9 8 8 7 6 5 5 4 4 3 2 2 1 1 1
6 7 8 8 9 7 6 7 8 10 11 12 13 14 14 12 10 11 10 8 10 16 11 9 15 21 20 11 9 9 8 8 6 6 5 4 4 4 3 2 2 1 1 2
3 4 5 6 8 9 9 7 8 8 9 9 9 10 12 12 8 6 9 16 18 17 10 15 22 21 17 9 8 8 7 7 6 5 5 4 3 3 2 2 2 2 2 2
2 4 6 8 9 8 10 11 12 11 11 9 10 9 7 6 9 11 11 14 20 17 12 16 21 19 11 8 8 7 7 6 6 5 4 4 3 3 2 2 2 2 2 2
3 4 4 5 6 7 8 9 9 9 10 11 9 8 9 9 12 12 11 13 16 17 12 10 11 12 8 8 8 7 6 6 6 4 4 3 3 3 2 2 2 2 3 3
6 6 6 7 6 6 7 8 9 9 10 11 12 10 10 11 11 12 13 12 11 11 9 9 8 8 8 8 7 7 6 5 4 4 3 3 2 2 2 2 2 2 3 3
Wind_Direction
260 249 215 223 209 200 205 207 208 219 219 227 221 210 208 191 174 172 186 193 196 196 192 184 179 176 172 168 164 160 160 165 170 165 158 153 152 153 151 153 158 160 157 155
262 241 229 239 217 208 213 213 221 224 232 226 230 202 196 188 181 192 205 208 203 197 190 189 186 178 170 168 164 159 163 165 156 151 149 150 149 145 143 143 141 142 151 154
247 260 267 239 213 207 212 213 207 221 227 184 205 209 214 208 199 205 211 208 202 199 196 191 185 175 172 166 156 157 159 154 152 150 148 148 144 141 145 147 142 145 152 155
232 216 225 234 215 205 214 225 217 224 207 190 208 216 215 202 197 209 212 210 208 202 195 183 167 159 151 148 152 155 155 153 152 149 147 143 141 144 143 140 146 149 150 153
200 228 257 272 226 196 202 230 220 225 222 211 214 219 251 222 206 210 209 205 204 194 179 162 159 152 144 148 151 154 158 158 157 152 147 145 147 146 141 137 134 135 137 138
198 216 237 245 233 195 179 243 222 217 222 210 160 212 240 221 211 222 215 200 185 160 149 154 156 147 147 153 156 165 163 156 150 148 147 150 148 139 130 130 128 122 114 121
212 229 257 265 252 135 176 240 241 212 216 199 200 225 240 200 203 207 204 189 168 155 158 162 152 148 150 155 166 157 140 135 135 137 138 137 128 122 123 118 113 110 106 96
201 219 241 242 133 173 228 275 268 222 218 212 224 237 229 202 200 190 179 166 158 155 156 151 152 149 150 157 146 132 130 129 128 127 125 124 120 116 116 119 115 112 107 92
212 229 258 206 219 241 234 269 272 256 251 230 232 230 219 212 198 185 176 166 155 150 143 144 155 152 149 146 137 132 127 126 123 117 112 121 125 125 119 117 119 121 119 116
249 256 266 272 271 271 272 274 277 276 266 227 228 221 210 199 186 175 167 160 148 144 145 149 149 139 136 138 135 130 129 127 125 121 114 107 109 120 124 129 127 128 131 131
251 266 275 263 249 265 284 295 304 302 278 244 227 221 200 190 183 174 161 153 152 153 151 147 138 130 133 137 133 128 127 126 123 120 121 113 103 105 119 134 148 146 153 151
244 241 247 265 269 267 271 274 272 279 290 279 228 211 194 184 173 162 154 149 144 140 139 138 136 133 136 137 136 132 131 130 128 126 122 120 115 95 82 100 105 105 115 118
249 260 263 271 271 260 257 262 261 257 256 263 245 196 176 168 159 150 148 150 149 145 141 137 134 134 138 137 135 134 135 135 131 131 130 129 128 125 114 83 81 84 88 84
251 255 262 261 259 256 255 260 262 272 270 246 203 162 150 145 146 150 153 149 138 133 133 134 133 136 138 133 127 125 127 131 131 131 130 130 128 127 128 128 112 73 62 64
248 243 250 260 264 260 259 255 252 252 231 209 168 158 158 157 157 151 139 133 129 127 131 133 134 137 136 131 128 128 126 126 124 123 122 123 122 119 118 117 117 112 76 47
251 253 249 249 248 247 243 236 234 232 210 192 176 169 162 147 135 132 137 143 143 145 146 142 140 141 137 130 125 122 123 130 128 125 123 121 121 121 121 121 121 122 122 119
236 244 243 243 240 241 238 231 223 216 200 191 179 151 135 129 127 132 135 133 129 132 137 139 137 135 133 131 127 126 124 128 127 121 122 125 125 126 128 130 133 135 151 243
232 237 237 233 230 232 237 232 217 203 197 185 153 147 151 152 152 148 138 124 114 109 117 128 132 131 129 127 124 124 124 124 124 125 123 123 123 124 127 130 135 137 134 348
234 235 236 234 229 222 222 218 205 194 175 160 159 163 161 152 142 139 137 136 138 138 141 138 137 129 127 131 126 122 123 123 121 121 122 128 121 120 124 128 133 139 154 169
232 231 228 229 223 212 208 198 180 175 167 157 150 144 140 140 139 138 136 133 141 139 139 139 132 128 127 131 126 122 124 126 126 126 124 125 128 129 131 136 142 153 176 213
227 224 219 216 210 201 195 179 171 170 163 159 158 155 146 140 139 138 136 128 123 130 136 137 131 130 129 131 124 122 124 126 127 130 132 133 133 134 138 142 148 163 192 235
228 218 212 206 193 189 184 171 167 160 152 147 142 137 136 137 134 123 113 129 140 140 133 131 130 134 136 129 120 122 123 124 125 127 130 134 138 142 147 152 163 184 214 242
227 209 197 189 182 168 147 147 152 151 150 149 149 149 146 143 143 140 133 136 138 136 130 131 138 136 130 120 120 121 123 125 127 130 133 136 140 146 154 163 177 198 227 250
197 171 159 148 137 134 136 134 126 123 122 123 130 137 136 131 117 101 119 136 137 130 126 135 136 132 124 116 118 119 121 123 125 127 130 132 137 144 155 168 191 219 237 252
120 123 128 134 137 137 131 124 117 116 115 113 111 108 106 113 123 125 126 131 132 125 123 132 131 125 117 115 118 120 122 128 133 134 136 141 148 155 168 185 205 228 244 254
97 108 111 112 119 126 132 132 130 130 128 123 115 110 107 108 113 116 118 120 123 121 119 118 120 117 113 115 118 121 122 127 125 128 139 146 156 167 183 204 226 237 248 256
87 94 100 100 102 113 119 123 126 130 131 129 124 119 118 117 117 118 118 119 117 115 113 111 111 112 114 115 117 118 119 121 126 134 142 151 164 181 199 219 234 244 253 261